SWIFT

Last updated on Fri Feb 07 2025 00:02:35 GMT+0000 (Coordinated Universal Time)

1 28485U 04047A 25036.92386919 .00029861 00000+0 94187-3 0 9992 2 28485 20.5558 293.8868 0006398 80.1422 279.9739 15.30998054109898
UTC large
Height (km)
Speed (km/s)
/
Latitude / Longitude
Inclination (degrees)
Orbital Period (minutes)
Azimuth
Elevation
Range (km)
Doppler Factor

Next 0 passes for location: London (51.5072 / 0.1276)

Sorry there are no passes over London.